[[{"header":{"parameterUnit":"m.s-1","parameterCategory":1,"la1":30.2991,"la2":30.254,"lo1":-89.0895,"lo2":-89.0444,"dy":0.0017,"dx":0.0017,"nx":28,"ny":28,"refTime":"2025-04-17T09:00:00:Z","depth":0,"parameterNumber":2,"parameterNumberName":"U-component_of_WINDS"},"data":[0,0,0,0,0,0,0,0,0,0,0,0,0,0,0,0,0,0,0,0,0,0,0,0,0,0,0,0,0,0,0,0,0,0,0,0,0,0,0,0,0,0,0,0,0,0,0,0,0,0,0,0,0,0,0,0,0,0,-2.3626,-2.3626,0,-2.3656,-2.3656,-2.3656,-2.3641,-2.3641,-2.364,-2.3639,-2.3668,-2.367,-2.3671,0,0,0,0,0,0,0,0,0,0,0,0,0,-2.3557,-2.3558,-2.3626,-2.3626,-2.3627,-2.3655,-2.3656,-2.3656,-2.3642,-2.3641,-2.364,-2.3639,-2.3668,-2.367,-2.3671,0,0,0,0,0,0,0,0,0,0,0,0,0,-2.3587,-2.3559,-2.3626,-2.3623,-2.3623,-2.3655,-2.3656,-2.3656,-2.3642,-2.3641,-2.3639,-2.3638,-2.3667,-2.3669,-2.3672,-2.3709,0,0,-2.3679,-2.3679,0,0,0,0,0,0,0,0,-2.3585,-2.3589,-2.3623,-2.3623,-2.3623,-2.3644,-2.3642,-2.3674,-2.3642,-2.3635,-2.3639,-2.3638,-2.3661,-2.3664,-2.3672,-2.371,-2.3711,-2.3679,-2.368,-2.3681,-2.3682,0,0,0,0,0,0,0,-2.3583,-2.3588,-2.3638,-2.3624,-2.3624,-2.362,-2.3623,-2.3648,-2.3654,-2.3635,-2.3634,-2.3638,-2.3661,-2.367,-2.3672,-2.3712,-2.3679,-2.3681,-2.3682,-2.3683,-2.3782,-2.3783,0,0,0,0,0,0,-2.3581,-2.3586,-2.3637,-2.3639,-2.3601,-2.3622,-2.3626,-2.3638,-2.3654,-2.3655,-2.3639,-2.3637,-2.3666,-2.367,-2.3673,-2.3717,-2.3681,-2.3683,-2.3684,-2.3781,-2.3783,-2.3784,0,0,0,0,0,0,-2.358,-2.3586,-2.3636,-2.3612,-2.3618,-2.3625,-2.3639,-2.3639,-2.3648,-2.3656,-2.3657,-2.3647,-2.3666,-2.367,-2.37,-2.3718,-2.3684,-2.3686,-2.3779,-2.3781,-2.3783,-2.3806,0,0,0,0,0,0,-2.3578,-2.3585,-2.3599,-2.3613,-2.362,-2.3662,-2.364,-2.3641,-2.3652,-2.365,-2.3664,-2.3665,-2.3665,-2.3697,-2.3702,-2.3721,-2.3688,-2.3778,-2.378,-2.3783,-2.3804,-2.3809,-2.3813,0,0,0,0,0,-2.3575,-2.3604,-2.36,-2.3606,-2.3637,-2.3663,-2.3667,-2.3666,-2.3654,-2.3668,-2.3673,-2.3665,-2.3716,-2.37,-2.3706,-2.3725,-2.3777,-2.378,-2.3782,-2.3802,-2.3808,-2.3813,0,0,0,0,0,0,-2.3592,-2.3606,-2.3601,-2.3635,-2.3648,-2.366,-2.3678,-2.3673,-2.3689,-2.3686,-2.3685,-2.3688,-2.3719,-2.3726,-2.3708,-2.3762,-2.3744,-2.3748,-2.3757,-2.3763,-2.3767,-2.3764,-2.369,0,0,0,0,0,-2.36,-2.362,-2.3631,-2.366,-2.3667,-2.3671,-2.3683,-2.3681,-2.3694,-2.3699,-2.3707,-2.372,-2.3739,-2.3751,-2.3769,-2.3805,-2.3808,-2.3822,-2.3826,-2.383,-2.3833,-2.3853,-2.3859,-2.3794,-2.3793,-2.3793,0,0,-2.3616,-2.3626,-2.3638,-2.3664,-2.3673,-2.3694,-2.3676,-2.3698,-2.3714,-2.3703,-2.3731,-2.3738,-2.3752,-2.3785,-2.38,-2.3792,-2.3852,-2.3834,-2.3836,-2.3838,-2.3857,-2.3863,-2.3869,-2.3795,-2.3795,-2.3795,0,0,-2.3655,-2.3665,-2.369,-2.3701,-2.3716,-2.372,-2.3726,-2.3739,-2.3743,-2.3772,-2.3765,-2.3783,-2.3816,-2.3826,-2.3836,-2.3882,-2.3874,-2.3888,-2.3911,-2.393,-2.3935,-2.394,-2.3956,-2.3962,-2.3891,-2.3891,-2.3891,0,-2.3673,-2.3704,-2.3704,-2.3728,-2.3739,-2.3731,-2.3757,-2.3767,-2.3787,-2.3795,-2.3785,-2.3827,-2.3836,-2.3872,-2.3883,-2.3891,-2.3898,-2.3885,-2.3935,-2.3939,-2.3943,-2.3959,-2.3965,-2.3893,-2.3892,-2.3892,-2.3892,0,-2.3725,-2.3747,-2.3765,-2.3786,-2.3799,-2.3824,-2.3828,-2.3842,-2.384,-2.3844,-2.3874,-2.3885,-2.3906,-2.3914,-2.3912,-2.395,-2.3944,-2.3935,-2.3916,-2.3951,-2.3965,-2.3971,-2.3895,-2.3894,-2.3894,-2.3893,0,0,-2.3774,-2.3796,-2.3802,-2.3812,-2.3829,-2.3846,-2.387,-2.3891,-2.3902,-2.3917,-2.3938,-2.3966,-2.3958,-2.3969,-2.3968,-2.3986,-2.4021,-2.3974,-2.3974,-2.3982,-2.4063,-2.407,-2.4077,-2.4017,-2.4018,-2.4019,-2.4062,0,-2.3814,-2.3857,-2.3859,-2.3898,-2.3918,-2.3912,-2.3933,-2.3946,-2.3952,-2.397,-2.3975,-2.3996,-2.3983,-2.399,-2.4007,-2.4013,-2.4037,-2.401,-2.4035,-2.4036,-2.4031,-2.4084,-2.4091,-2.4131,-2.4068,-2.4069,-2.4069,0,-2.3867,-2.3884,-2.3925,-2.394,-2.3949,-2.3968,-2.3987,-2.4005,-2.4019,-2.4022,-2.4035,-2.4033,-2.4058,-2.404,-2.4075,-2.4056,-2.4067,-2.4072,-2.4074,-2.4075,-2.4054,-2.4086,-2.4144,-2.4149,-2.4078,-2.4077,-2.4077,0,-2.3898,-2.3931,-2.396,-2.3969,-2.3987,-2.4001,-2.4009,-2.4023,-2.4036,-2.4053,-2.4061,-2.408,-2.4091,-2.4106,-2.4109,-2.4096,-2.4144,-2.4126,-2.4147,-2.4147,-2.4156,-2.4155,-2.4215,-2.4165,-2.4165,-2.4165,-2.4164,0,-2.3942,-2.3967,-2.3975,-2.3993,-2.4021,-2.4023,-2.4051,-2.4059,-2.4071,-2.4091,-2.4087,-2.4105,-2.4108,-2.4127,-2.413,-2.4158,-2.4163,-2.4166,-2.4166,-2.4166,-2.4165,-2.4172,-2.4169,-2.4166,-2.4166,-2.4166,-2.4165,0,-2.3981,-2.3987,-2.4018,-2.4034,-2.4038,-2.4059,-2.4072,-2.4089,-2.4095,-2.4119,-2.4125,-2.4134,-2.4156,-2.4161,-2.4187,-2.4189,-2.4222,-2.422,-2.4217,-2.4217,-2.4237,-2.4235,-2.4303,-2.4312,-2.4256,-2.4256,-2.4257,0,-2.4008,-2.4028,-2.4046,-2.4059,-2.4068,-2.4089,-2.4102,-2.4105,-2.4119,-2.4138,-2.4153,-2.4175,-2.4192,-2.4228,-2.4237,-2.4257,-2.4255,-2.4277,-2.4258,-2.4257,-2.4255,-2.4253,-2.4255,-2.4281,-2.4281,-2.4282,-2.4282,0,-2.4056,-2.4059,-2.4077,-2.4098,-2.4114,-2.413,-2.4145,-2.4156,-2.4162,-2.4177,-2.42,-2.4214,-2.4242,-2.4263,-2.4284,-2.4293,-2.4288,-2.4289,-2.4294,-2.4294,-2.4291,-2.4292,-2.4227,-2.4287,-2.4286,-2.4286,-2.4286,-2.4285,-2.409,-2.4107,-2.4123,-2.4144,-2.4156,-2.4171,-2.4188,-2.4197,-2.4216,-2.4238,-2.424,-2.4265,-2.428,-2.4307,-2.4318,-2.4337,-2.433,-2.4339,-2.4341,-2.4342,-2.4344,-2.4289,-2.4341,-2.4341,-2.4341,-2.4341,-2.4341,0,-2.4137,-2.4147,-2.4167,-2.4189,-2.4206,-2.4202,-2.4219,-2.4233,-2.4256,-2.4271,-2.4288,-2.4315,-2.4337,-2.4348,-2.4369,-2.4383,-2.4382,-2.4388,-2.4387,-2.4389,-2.4349,-2.4342,-2.4389,-2.4389,-2.4389,-2.4389,-2.4389,-2.4389,-2.4163,-2.4192,-2.4197,-2.4232,-2.4242,-2.4267,-2.4277,-2.4291,-2.4303,-2.4333,-2.4351,-2.4359,-2.4372,-2.4395,-2.4415,-2.4417,-2.4425,-2.4433,-2.4434,-2.4397,-2.4392,-2.4387,-2.438,-2.4435,-2.4435,-2.4472,-2.4473,-2.4473]},{"header":{"parameterUnit":"m.s-1","parameterCategory":1,"la1":30.2991,"la2":30.254,"lo1":-89.0895,"lo2":-89.0444,"dy":0.0017,"dx":0.0017,"nx":28,"ny":28,"refTime":"2025-04-17T09:00:00:Z","depth":0,"parameterNumber":3,"parameterNumberName":"V-component_of_WINDS"},"data":[0,0,0,0,0,0,0,0,0,0,0,0,0,0,0,0,0,0,0,0,0,0,0,0,0,0,0,0,0,0,0,0,0,0,0,0,0,0,0,0,0,0,0,0,0,0,0,0,0,0,0,0,0,0,0,0,0,0,2.555,2.5549,0,2.547,2.5469,2.5468,2.5427,2.5427,2.5427,2.5427,2.5341,2.5339,2.5337,0,0,0,0,0,0,0,0,0,0,0,0,0,2.5666,2.5664,2.555,2.5549,2.5548,2.547,2.5469,2.5468,2.5427,2.5427,2.5427,2.5427,2.5342,2.5339,2.5337,0,0,0,0,0,0,0,0,0,0,0,0,0,2.5604,2.5663,2.5551,2.5518,2.5515,2.547,2.5469,2.5468,2.5427,2.5427,2.5427,2.5427,2.5343,2.5339,2.5336,2.5317,0,0,2.5326,2.5324,0,0,0,0,0,0,0,0,2.5607,2.5599,2.5524,2.5521,2.5516,2.5458,2.5478,2.5417,2.5427,2.546,2.5427,2.5427,2.538,2.5374,2.5358,2.5313,2.5309,2.5326,2.5324,2.5322,2.5321,0,0,0,0,0,0,0,2.5612,2.5603,2.5518,2.5523,2.5518,2.5507,2.5499,2.5467,2.5421,2.5457,2.5454,2.5445,2.5378,2.5362,2.5356,2.5308,2.5326,2.5323,2.5321,2.5319,2.5243,2.5243,0,0,0,0,0,0,2.5621,2.5607,2.5521,2.5516,2.5563,2.5505,2.5495,2.5477,2.5421,2.5413,2.5445,2.5444,2.5368,2.536,2.5353,2.5327,2.5322,2.5319,2.5317,2.5243,2.5243,2.5243,0,0,0,0,0,0,2.5624,2.5614,2.5524,2.556,2.5548,2.5504,2.5483,2.5476,2.5459,2.5413,2.5404,2.5438,2.5367,2.5358,2.5326,2.5324,2.5317,2.5314,2.5243,2.5243,2.5243,2.5275,0,0,0,0,0,0,2.5628,2.5615,2.5608,2.5561,2.5546,2.55,2.5483,2.5474,2.5454,2.5451,2.5403,2.5395,2.5366,2.5332,2.5323,2.5319,2.5312,2.5243,2.5243,2.5243,2.5274,2.5276,2.5278,0,0,0,0,0,2.5632,2.5619,2.5608,2.5598,2.5536,2.55,2.5491,2.546,2.5454,2.5446,2.5416,2.5396,2.5326,2.5329,2.5319,2.5314,2.5243,2.5243,2.5243,2.5273,2.5276,2.5278,0,0,0,0,0,0,2.5665,2.5612,2.5599,2.5571,2.554,2.5493,2.5481,2.5463,2.5433,2.5431,2.5393,2.5382,2.5355,2.5331,2.5335,2.5292,2.5282,2.528,2.5309,2.5311,2.5313,2.5319,2.5309,0,0,0,0,0,2.567,2.5645,2.56,2.5579,2.5565,2.5526,2.5509,2.5488,2.5454,2.544,2.5408,2.5375,2.5346,2.5327,2.5297,2.5271,2.526,2.5262,2.5264,2.5266,2.5265,2.525,2.5251,2.5243,2.5243,2.5243,0,0,2.5677,2.5646,2.5632,2.5585,2.5559,2.5534,2.5515,2.5489,2.547,2.5436,2.5405,2.5381,2.5342,2.5313,2.5299,2.5292,2.5265,2.5266,2.5268,2.5265,2.525,2.5251,2.5251,2.5243,2.5243,2.5243,0,0,2.5679,2.5653,2.5633,2.5608,2.557,2.5545,2.554,2.5496,2.5479,2.5447,2.5422,2.5398,2.5348,2.5322,2.5302,2.5297,2.5278,2.5288,2.5298,2.5284,2.5285,2.5285,2.5284,2.5283,2.5287,2.5287,2.5287,0,2.5694,2.5656,2.5625,2.5601,2.5582,2.5552,2.5531,2.5508,2.5461,2.5448,2.5442,2.538,2.5351,2.5317,2.5316,2.5301,2.5295,2.5293,2.5287,2.5287,2.5287,2.5285,2.5285,2.5289,2.5288,2.5288,2.5288,0,2.5676,2.5651,2.5639,2.5597,2.5576,2.5554,2.552,2.5502,2.5483,2.5459,2.5428,2.5393,2.5356,2.5347,2.5327,2.531,2.5307,2.5295,2.5284,2.529,2.5288,2.5287,2.5291,2.529,2.529,2.5289,0,0,2.5695,2.5638,2.5634,2.5615,2.5572,2.5551,2.5528,2.5494,2.548,2.5449,2.5429,2.5388,2.5377,2.5355,2.5332,2.532,2.532,2.5309,2.5308,2.5313,2.5299,2.5308,2.5308,2.5307,2.5307,2.5307,2.5302,0,2.5691,2.5649,2.5622,2.5591,2.5567,2.554,2.552,2.5491,2.5468,2.5444,2.5418,2.539,2.5378,2.5364,2.5351,2.5322,2.5316,2.5322,2.5287,2.5287,2.5298,2.5307,2.5316,2.5313,2.5301,2.5301,2.5301,0,2.5679,2.5652,2.5619,2.558,2.5569,2.5552,2.5519,2.5497,2.5464,2.5448,2.5425,2.5402,2.5377,2.5369,2.5334,2.5339,2.5323,2.5308,2.5307,2.5301,2.5294,2.5302,2.5311,2.5311,2.5299,2.5299,2.5299,0,2.5697,2.5651,2.5626,2.5611,2.5564,2.5553,2.5533,2.55,2.5482,2.5453,2.5441,2.5409,2.5392,2.5367,2.5337,2.5334,2.5305,2.5295,2.5291,2.5292,2.5285,2.5286,2.5293,2.5276,2.5276,2.5276,2.5276,0,2.5695,2.5676,2.5634,2.5618,2.5597,2.5566,2.5545,2.5522,2.5494,2.5473,2.5447,2.5428,2.539,2.5367,2.5343,2.5318,2.531,2.5296,2.529,2.5298,2.53,2.5287,2.5286,2.5276,2.5276,2.5276,2.5276,0,2.571,2.5681,2.5652,2.5611,2.5601,2.5587,2.5551,2.5535,2.5512,2.5486,2.5479,2.5441,2.5413,2.5381,2.5341,2.5325,2.5301,2.5292,2.5313,2.5309,2.5307,2.5308,2.5305,2.5303,2.5289,2.5289,2.5289,0,2.571,2.5695,2.5654,2.5639,2.562,2.5596,2.5578,2.5547,2.553,2.5492,2.5481,2.5451,2.5425,2.538,2.5349,2.5319,2.5309,2.531,2.5304,2.5313,2.5309,2.531,2.5309,2.5311,2.5312,2.5312,2.5312,0,2.5713,2.5701,2.5676,2.5647,2.5627,2.5602,2.5576,2.5565,2.5529,2.5511,2.5482,2.5462,2.5423,2.5393,2.536,2.5338,2.5319,2.5315,2.5312,2.532,2.5333,2.5326,2.5317,2.5315,2.5314,2.5314,2.5314,2.5314,2.5721,2.5707,2.5677,2.565,2.5628,2.5606,2.5589,2.5565,2.554,2.5507,2.549,2.5462,2.543,2.5384,2.5363,2.534,2.5334,2.533,2.5329,2.5329,2.5331,2.5337,2.5334,2.5334,2.5334,2.5334,2.5333,0,2.5723,2.5703,2.5679,2.5645,2.5625,2.5611,2.5582,2.5566,2.5542,2.5515,2.5491,2.5459,2.543,2.5398,2.5368,2.5356,2.5346,2.5349,2.5349,2.5344,2.5338,2.5344,2.5357,2.5357,2.5357,2.5357,2.5357,2.5357,2.5722,2.5698,2.5682,2.5648,2.5627,2.56,2.5585,2.5564,2.5542,2.5508,2.5485,2.5465,2.5436,2.5404,2.5377,2.5368,2.5358,2.5363,2.5352,2.5347,2.5345,2.5343,2.5348,2.5361,2.5361,2.536,2.536,2.536]}]]